LVCUE SADF-SAWP

Flight info

Callsign LVCUE
Flight time 2h 23m
Altitude 40000
Route FDO DCT EGANI DCT BCA UT693 ILPOT DCT MIKIM
Aircraft LJ35/M-SGHRWXY/SB1

Departure

Time 2026-04-20 22:25
Airport San Fernando Airport (SADF)

Arrival

Time 2026-04-21 00:48
Airport Perito Moreno Jalil Hamer Airport (SAWP)
Time Latitude Longitude Altitude Speed Heading
2026-04-20 22:11 -34.45388 -58.58051 21 ft 0 kts 333°
2026-04-20 22:21 -34.45375 -58.58061 22 ft 6 kts 309°
2026-04-20 22:22 -34.45380 -58.58095 21 ft 13 kts 239°
2026-04-20 22:22 -34.45449 -58.58254 23 ft 23 kts 242°
2026-04-20 22:22 -34.45522 -58.58422 21 ft 24 kts 242°
2026-04-20 22:22 -34.45606 -58.58617 23 ft 28 kts 242°
2026-04-20 22:23 -34.45698 -58.58834 21 ft 28 kts 241°
2026-04-20 22:23 -34.45763 -58.58978 21 ft 15 kts 237°
2026-04-20 22:23 -34.45808 -58.59088 23 ft 15 kts 243°
2026-04-20 22:23 -34.45864 -58.59219 21 ft 20 kts 243°
2026-04-20 22:24 -34.45930 -58.59372 21 ft 20 kts 243°
2026-04-20 22:24 -34.46001 -58.59536 22 ft 22 kts 243°
2026-04-20 22:24 -34.45997 -58.59681 21 ft 17 kts 326°
2026-04-20 22:24 -34.45943 -58.59661 24 ft 4 kts 44°
2026-04-20 22:25 -34.45661 -58.59330 21 ft 114 kts 44°
2026-04-20 22:25 -34.44878 -58.58425 479 ft 182 kts 48°
2026-04-20 22:25 -34.43814 -58.57354 1700 ft 208 kts 43°
2026-04-20 22:26 -34.42629 -58.56138 2132 ft 246 kts 44°
2026-04-20 22:26 -34.41317 -58.54748 2095 ft 251 kts 44°
2026-04-20 22:26 -34.39996 -58.53338 2038 ft 254 kts 44°
2026-04-20 22:27 -34.37435 -58.50422 2004 ft 252 kts 57°
2026-04-20 22:27 -34.36852 -58.48278 2464 ft 293 kts 86°
2026-04-20 22:27 -34.37271 -58.45834 3964 ft 301 kts 114°
2026-04-20 22:27 -34.38562 -58.43859 5875 ft 301 kts 139°
2026-04-20 22:28 -34.40410 -58.42719 7643 ft 299 kts 166°
2026-04-20 22:28 -34.42455 -58.42634 9425 ft 293 kts 193°
2026-04-20 22:28 -34.44288 -58.43596 11100 ft 282 kts 217°
2026-04-20 22:28 -34.45838 -58.44956 12751 ft 276 kts 220°
2026-04-20 22:29 -34.47389 -58.46308 14370 ft 271 kts 219°
2026-04-20 22:29 -34.48934 -58.47593 15863 ft 267 kts 219°
2026-04-20 22:29 -34.50448 -58.48847 17378 ft 261 kts 220°
2026-04-20 22:29 -34.51928 -58.50085 18830 ft 254 kts 221°
2026-04-20 22:30 -34.53363 -58.51288 20128 ft 247 kts 221°
2026-04-20 22:30 -34.54758 -58.52459 21418 ft 240 kts 222°
2026-04-20 22:30 -34.56112 -58.53592 22683 ft 233 kts 223°
2026-04-20 22:30 -34.57423 -58.54690 23863 ft 225 kts 224°
2026-04-20 22:31 -34.58689 -58.55753 24822 ft 218 kts 225°
2026-04-20 22:31 -34.59919 -58.56785 25737 ft 211 kts 226°
2026-04-20 22:31 -34.61129 -58.57807 26449 ft 215 kts 226°
2026-04-20 22:31 -34.62368 -58.58854 27125 ft 218 kts 226°
2026-04-20 22:32 -34.63623 -58.59907 27815 ft 220 kts 227°
2026-04-20 22:32 -34.64873 -58.60956 28497 ft 222 kts 227°
2026-04-20 22:32 -34.66149 -58.62030 29159 ft 225 kts 227°
2026-04-20 22:32 -34.67443 -58.63120 29811 ft 227 kts 227°
2026-04-20 22:33 -34.68750 -58.64219 30397 ft 230 kts 228°
2026-04-20 22:33 -34.70075 -58.65334 30937 ft 232 kts 228°
2026-04-20 22:33 -34.71407 -58.66456 31462 ft 234 kts 229°
2026-04-20 22:33 -34.72752 -58.67589 31982 ft 236 kts 229°
2026-04-20 22:34 -34.74114 -58.68738 32498 ft 238 kts 229°
2026-04-20 22:34 -34.75464 -58.69875 33007 ft 240 kts 229°
2026-04-20 22:34 -34.76845 -58.71041 33502 ft 242 kts 230°
2026-04-20 22:34 -34.78238 -58.72217 33990 ft 245 kts 230°
2026-04-20 22:35 -34.79642 -58.73403 34413 ft 246 kts 230°
2026-04-20 22:35 -34.81057 -58.74595 34852 ft 247 kts 230°
2026-04-20 22:35 -34.82471 -58.75791 35274 ft 248 kts 230°
2026-04-20 22:35 -34.83893 -58.76994 35695 ft 249 kts 230°
2026-04-20 22:36 -34.85323 -58.78203 36109 ft 250 kts 231°
2026-04-20 22:36 -34.86755 -58.79414 36519 ft 251 kts 231°
2026-04-20 22:36 -34.88175 -58.80617 36913 ft 252 kts 231°
2026-04-20 22:36 -34.89622 -58.81843 37312 ft 253 kts 231°
2026-04-20 22:37 -34.91073 -58.83071 37703 ft 254 kts 231°
2026-04-20 22:37 -34.92527 -58.84304 38096 ft 255 kts 231°
2026-04-20 22:37 -34.93989 -58.85543 38475 ft 256 kts 231°
2026-04-20 22:37 -34.95459 -58.86791 38821 ft 258 kts 231°
2026-04-20 22:38 -34.96936 -58.88045 39107 ft 259 kts 231°
2026-04-20 22:38 -34.98417 -58.89302 39393 ft 261 kts 231°
2026-04-20 22:38 -34.99895 -58.90559 39658 ft 262 kts 231°
2026-04-20 22:38 -35.01396 -58.91834 39928 ft 264 kts 231°
2026-04-20 22:39 -35.02920 -58.93135 40058 ft 272 kts 230°
2026-04-20 22:39 -35.04504 -58.94495 40072 ft 285 kts 230°
2026-04-20 22:39 -35.06169 -58.95913 40076 ft 298 kts 229°
2026-04-20 22:39 -35.07908 -58.97390 40080 ft 311 kts 228°
2026-04-20 22:40 -35.09721 -58.98932 40084 ft 323 kts 228°
2026-04-20 22:40 -35.11601 -59.00533 40084 ft 334 kts 227°
2026-04-20 22:40 -35.13539 -59.02186 40085 ft 345 kts 227°
2026-04-20 22:40 -35.15539 -59.03892 40087 ft 356 kts 227°
2026-04-20 22:41 -35.18988 -59.06836 40086 ft 371 kts 226°
2026-04-20 22:41 -35.24025 -59.11142 40085 ft 388 kts 226°
2026-04-20 22:42 -35.28531 -59.15000 40085 ft 400 kts 226°
2026-04-20 22:42 -35.32367 -59.18288 40085 ft 408 kts 226°
2026-04-20 22:43 -35.37064 -59.22320 40088 ft 415 kts 225°
2026-04-20 22:43 -35.41822 -59.26411 40093 ft 418 kts 225°
2026-04-20 22:44 -35.46575 -59.30504 40097 ft 420 kts 225°
2026-04-20 22:44 -35.51361 -59.34632 40097 ft 421 kts 225°
2026-04-20 22:45 -35.56151 -59.38770 40098 ft 421 kts 225°
2026-04-20 22:45 -35.60953 -59.42924 40106 ft 421 kts 225°
2026-04-20 22:46 -35.65712 -59.47048 40104 ft 421 kts 225°
2026-04-20 22:46 -35.70496 -59.51199 40111 ft 421 kts 226°
2026-04-20 22:47 -35.75283 -59.55360 40108 ft 420 kts 226°
2026-04-20 22:47 -35.80054 -59.59512 40114 ft 420 kts 226°
2026-04-20 22:48 -35.84828 -59.63674 40114 ft 420 kts 226°
2026-04-20 22:48 -35.89568 -59.67811 40117 ft 420 kts 226°
2026-04-20 22:49 -35.94339 -59.71983 40117 ft 420 kts 226°
2026-04-20 22:49 -35.99108 -59.76159 40122 ft 420 kts 226°
2026-04-20 22:50 -36.03847 -59.80314 40126 ft 420 kts 226°
2026-04-20 22:50 -36.08607 -59.84495 40129 ft 420 kts 226°
2026-04-20 22:51 -36.13363 -59.88678 40129 ft 420 kts 226°
2026-04-20 22:51 -36.18122 -59.92871 40134 ft 420 kts 226°
2026-04-20 22:52 -36.22882 -59.97070 40134 ft 419 kts 226°
2026-04-20 22:52 -36.27607 -60.01245 40138 ft 419 kts 226°
2026-04-20 22:53 -36.32362 -60.05452 40137 ft 419 kts 226°
2026-04-20 22:53 -36.37116 -60.09667 40137 ft 420 kts 226°
2026-04-20 22:54 -36.41869 -60.13885 40142 ft 419 kts 226°
2026-04-20 22:54 -36.46621 -60.18111 40144 ft 419 kts 226°
2026-04-20 22:55 -36.51334 -60.22306 40145 ft 420 kts 226°
2026-04-20 22:55 -36.56182 -60.26403 40145 ft 421 kts 225°
2026-04-20 22:56 -36.61021 -60.30534 40150 ft 422 kts 224°
2026-04-20 22:56 -36.65880 -60.34641 40148 ft 422 kts 225°
2026-04-20 22:57 -36.70724 -60.38768 40155 ft 422 kts 225°
2026-04-20 22:57 -36.75573 -60.42893 40154 ft 422 kts 225°
2026-04-20 22:58 -36.80429 -60.47036 40153 ft 422 kts 225°
2026-04-20 22:58 -36.85281 -60.51179 40158 ft 423 kts 225°
2026-04-20 22:59 -36.90106 -60.55307 40160 ft 423 kts 225°
2026-04-20 22:59 -36.94963 -60.59469 40163 ft 423 kts 225°
2026-04-20 23:00 -36.99827 -60.63643 40166 ft 424 kts 225°
2026-04-20 23:00 -37.04700 -60.67831 40164 ft 424 kts 225°
2026-04-20 23:01 -37.09565 -60.72019 40176 ft 424 kts 225°
2026-04-20 23:01 -37.14438 -60.76221 40171 ft 425 kts 225°
2026-04-20 23:02 -37.19280 -60.80401 40165 ft 425 kts 225°
2026-04-20 23:02 -37.24154 -60.84619 40174 ft 425 kts 225°
2026-04-20 23:03 -37.29022 -60.88836 40172 ft 426 kts 224°
2026-04-20 23:03 -37.33901 -60.93070 40177 ft 426 kts 224°
2026-04-20 23:04 -37.38783 -60.97313 40174 ft 426 kts 224°
2026-04-20 23:04 -37.43665 -61.01563 40180 ft 427 kts 224°
2026-04-20 23:05 -37.48518 -61.05794 40182 ft 427 kts 224°
2026-04-20 23:05 -37.53412 -61.10069 40186 ft 427 kts 224°
2026-04-20 23:06 -37.58300 -61.14345 40188 ft 427 kts 224°
2026-04-20 23:06 -37.63152 -61.18596 40192 ft 427 kts 224°
2026-04-20 23:07 -37.68046 -61.22891 40194 ft 428 kts 224°
2026-04-20 23:07 -37.72932 -61.27186 40197 ft 428 kts 225°
2026-04-20 23:08 -37.77818 -61.31489 40199 ft 428 kts 225°
2026-04-20 23:08 -37.82705 -61.35799 40200 ft 428 kts 225°
2026-04-20 23:09 -37.87596 -61.40120 40205 ft 428 kts 225°
2026-04-20 23:09 -37.92460 -61.44424 40206 ft 428 kts 225°
2026-04-20 23:10 -37.97344 -61.48753 40206 ft 428 kts 225°
2026-04-20 23:10 -38.02229 -61.53089 40206 ft 428 kts 225°
2026-04-20 23:11 -38.07112 -61.57433 40209 ft 429 kts 225°
2026-04-20 23:11 -38.11976 -61.61765 40207 ft 429 kts 225°
2026-04-20 23:12 -38.16858 -61.66121 40209 ft 429 kts 225°
2026-04-20 23:12 -38.21738 -61.70482 40210 ft 428 kts 225°
2026-04-20 23:13 -38.26613 -61.74848 40206 ft 428 kts 225°
2026-04-20 23:13 -38.31489 -61.79219 40206 ft 428 kts 225°
2026-04-20 23:14 -38.36361 -61.83596 40209 ft 428 kts 225°
2026-04-20 23:14 -38.41194 -61.87944 40207 ft 428 kts 225°
2026-04-20 23:15 -38.46075 -61.92343 40210 ft 429 kts 225°
2026-04-20 23:15 -38.50831 -61.96637 40211 ft 428 kts 226°
2026-04-20 23:16 -38.55692 -62.01058 40211 ft 429 kts 226°
2026-04-20 23:16 -38.60566 -62.05456 40220 ft 429 kts 226°
2026-04-20 23:17 -38.65430 -62.09877 40221 ft 429 kts 226°
2026-04-20 23:17 -38.70294 -62.14295 40221 ft 429 kts 226°
2026-04-20 23:18 -38.72792 -62.16365 40195 ft 440 kts 218°
2026-04-20 23:18 -38.75557 -62.18113 40207 ft 442 kts 217°
2026-04-20 23:18 -38.81054 -62.21640 40218 ft 441 kts 218°
2026-04-20 23:19 -38.86571 -62.25173 40219 ft 442 kts 217°
2026-04-20 23:19 -38.92040 -62.28684 40213 ft 442 kts 218°
2026-04-20 23:20 -38.97551 -62.32230 40212 ft 443 kts 217°
2026-04-20 23:20 -39.03069 -62.35784 40209 ft 443 kts 217°
2026-04-20 23:21 -39.08587 -62.39346 40209 ft 443 kts 217°
2026-04-20 23:21 -39.14109 -62.42916 40210 ft 444 kts 217°
2026-04-20 23:22 -39.19628 -62.46491 40216 ft 444 kts 217°
2026-04-20 23:22 -39.25120 -62.50055 40210 ft 444 kts 217°
2026-04-20 23:23 -39.30646 -62.53646 40214 ft 445 kts 217°
2026-04-20 23:23 -39.36177 -62.57248 40217 ft 445 kts 217°
2026-04-20 23:24 -39.41704 -62.60853 40217 ft 445 kts 217°
2026-04-20 23:24 -39.47230 -62.64464 40218 ft 445 kts 217°
2026-04-20 23:25 -39.52722 -62.68161 40216 ft 443 kts 219°
2026-04-20 23:25 -39.58147 -62.71877 40215 ft 444 kts 218°
2026-04-20 23:26 -39.63590 -62.75658 40217 ft 443 kts 218°
2026-04-20 23:26 -39.69030 -62.79427 40213 ft 443 kts 218°
2026-04-20 23:27 -39.74486 -62.83222 40208 ft 447 kts 215°
2026-04-20 23:27 -39.80010 -62.87064 40202 ft 450 kts 215°
2026-04-20 23:28 -39.85507 -62.90898 40204 ft 452 kts 215°
2026-04-20 23:28 -39.91056 -62.94775 40208 ft 452 kts 215°
2026-04-20 23:29 -39.96599 -62.98655 40208 ft 452 kts 215°
2026-04-20 23:29 -40.01206 -63.01885 40206 ft 452 kts 214°
2026-04-20 23:30 -40.07671 -63.06427 40205 ft 451 kts 214°
2026-04-20 23:30 -40.12265 -63.09659 40205 ft 451 kts 214°
2026-04-20 23:31 -40.17793 -63.13556 40203 ft 451 kts 214°
2026-04-20 23:31 -40.23280 -63.17432 40200 ft 451 kts 214°
2026-04-20 23:32 -40.28803 -63.21340 40197 ft 451 kts 214°
2026-04-20 23:32 -40.34326 -63.25256 40199 ft 451 kts 213°
2026-04-20 23:33 -40.39862 -63.29187 40198 ft 452 kts 213°
2026-04-20 23:33 -40.45380 -63.33114 40196 ft 452 kts 213°
2026-04-20 23:34 -40.50881 -63.37036 40194 ft 452 kts 213°
2026-04-20 23:34 -40.56409 -63.40985 40192 ft 452 kts 213°
2026-04-20 23:35 -40.64704 -63.46923 40192 ft 452 kts 213°
2026-04-20 23:36 -40.70199 -63.50867 40191 ft 452 kts 213°
2026-04-20 23:36 -40.75721 -63.54838 40186 ft 452 kts 212°
2026-04-20 23:37 -40.81242 -63.58815 40187 ft 452 kts 212°
2026-04-20 23:37 -40.86766 -63.62803 40188 ft 452 kts 212°
2026-04-20 23:38 -40.92322 -63.66752 40177 ft 454 kts 210°
2026-04-20 23:38 -40.97998 -63.70460 40179 ft 454 kts 210°
2026-04-20 23:39 -41.03658 -63.74196 40181 ft 455 kts 210°
2026-04-20 23:39 -41.09336 -63.77931 40177 ft 455 kts 210°
2026-04-20 23:40 -41.14978 -63.81661 40183 ft 456 kts 210°
2026-04-20 23:40 -41.20659 -63.85418 40181 ft 456 kts 210°
2026-04-20 23:41 -41.26334 -63.89181 40178 ft 455 kts 210°
2026-04-20 23:41 -41.31980 -63.92930 40173 ft 455 kts 209°
2026-04-20 23:42 -41.37653 -63.96706 40165 ft 455 kts 209°
2026-04-20 23:42 -41.43323 -64.00488 40170 ft 455 kts 209°
2026-04-20 23:43 -41.48946 -64.04244 40174 ft 454 kts 209°
2026-04-20 23:43 -41.54601 -64.08030 40165 ft 454 kts 209°
2026-04-20 23:44 -41.60249 -64.11818 40172 ft 454 kts 209°
2026-04-20 23:44 -41.65900 -64.15616 40169 ft 454 kts 209°
2026-04-20 23:45 -41.71513 -64.19396 40167 ft 453 kts 208°
2026-04-20 23:45 -41.77149 -64.23199 40160 ft 453 kts 208°
2026-04-20 23:46 -41.82776 -64.27004 40165 ft 453 kts 208°
2026-04-20 23:46 -41.88408 -64.30819 40162 ft 453 kts 208°
2026-04-20 23:47 -41.94036 -64.34639 40159 ft 453 kts 208°
2026-04-20 23:47 -41.99627 -64.38441 40161 ft 452 kts 208°
2026-04-20 23:48 -42.05245 -64.42270 40159 ft 452 kts 208°
2026-04-20 23:48 -42.10856 -64.46102 40159 ft 452 kts 208°
2026-04-20 23:49 -42.16464 -64.49938 40158 ft 451 kts 208°
2026-04-20 23:49 -42.22065 -64.53779 40153 ft 451 kts 208°
2026-04-20 23:50 -42.27614 -64.57590 40151 ft 450 kts 208°
2026-04-20 23:50 -42.33205 -64.61439 40149 ft 450 kts 208°
2026-04-20 23:51 -42.38510 -64.65888 40164 ft 449 kts 221°
2026-04-20 23:51 -42.42767 -64.72063 40154 ft 449 kts 229°
2026-04-20 23:52 -42.46926 -64.78399 40157 ft 449 kts 229°
2026-04-20 23:52 -42.51036 -64.84695 40151 ft 449 kts 229°
2026-04-20 23:53 -42.55174 -64.91035 40153 ft 449 kts 229°
2026-04-20 23:53 -42.59312 -64.97396 40150 ft 449 kts 229°
2026-04-20 23:54 -42.63450 -65.03767 40147 ft 450 kts 229°
2026-04-20 23:54 -42.67591 -65.10158 40141 ft 450 kts 229°
2026-04-20 23:55 -42.71730 -65.16560 40139 ft 451 kts 229°
2026-04-20 23:55 -42.75872 -65.22981 40132 ft 451 kts 229°
2026-04-20 23:56 -42.79984 -65.29368 40136 ft 451 kts 229°
2026-04-20 23:56 -42.84120 -65.35807 40128 ft 451 kts 229°
2026-04-20 23:57 -42.88241 -65.42238 40128 ft 451 kts 229°
2026-04-20 23:57 -42.92367 -65.48690 40122 ft 451 kts 229°
2026-04-20 23:58 -42.96489 -65.55150 40121 ft 451 kts 229°
2026-04-20 23:58 -43.00604 -65.61614 40121 ft 450 kts 229°
2026-04-20 23:59 -43.04691 -65.68025 40119 ft 450 kts 227°
2026-04-20 23:59 -43.08801 -65.74480 40118 ft 449 kts 228°
2026-04-21 00:00 -43.12887 -65.80965 40117 ft 449 kts 227°
2026-04-21 00:00 -43.16976 -65.87433 40112 ft 448 kts 228°
2026-04-21 00:01 -43.21044 -65.93900 40114 ft 448 kts 228°
2026-04-21 00:01 -43.25108 -66.00367 40113 ft 447 kts 228°
2026-04-21 00:02 -43.29140 -66.06800 40112 ft 446 kts 228°
2026-04-21 00:02 -43.33187 -66.13271 40112 ft 446 kts 228°
2026-04-21 00:03 -43.37235 -66.19757 40115 ft 446 kts 228°
2026-04-21 00:03 -43.41264 -66.26229 40111 ft 445 kts 228°
2026-04-21 00:04 -43.45270 -66.32677 40108 ft 445 kts 228°
2026-04-21 00:04 -43.49288 -66.39160 40108 ft 445 kts 228°
2026-04-21 00:05 -43.53298 -66.45643 40103 ft 444 kts 229°
2026-04-21 00:05 -43.57306 -66.52138 40103 ft 444 kts 229°
2026-04-21 00:06 -43.61305 -66.58635 40102 ft 444 kts 229°
2026-04-21 00:06 -43.65302 -66.65141 40099 ft 444 kts 229°
2026-04-21 00:07 -43.69294 -66.71655 40094 ft 444 kts 229°
2026-04-21 00:07 -43.73283 -66.78178 40095 ft 444 kts 229°
2026-04-21 00:08 -43.77244 -66.84669 40091 ft 444 kts 229°
2026-04-21 00:08 -43.81224 -66.91207 40096 ft 443 kts 229°
2026-04-21 00:09 -43.85194 -66.97743 40089 ft 443 kts 229°
2026-04-21 00:09 -43.89158 -67.04284 40087 ft 443 kts 230°
2026-04-21 00:10 -43.93111 -67.10822 40087 ft 443 kts 230°
2026-04-21 00:10 -43.97039 -67.17333 40081 ft 442 kts 230°
2026-04-21 00:11 -44.00986 -67.23891 40084 ft 442 kts 230°
2026-04-21 00:11 -44.04920 -67.30443 40082 ft 442 kts 230°
2026-04-21 00:12 -44.08866 -67.37027 40080 ft 442 kts 230°
2026-04-21 00:12 -44.12801 -67.43611 40080 ft 441 kts 230°
2026-04-21 00:13 -44.16728 -67.50194 40083 ft 441 kts 231°
2026-04-21 00:13 -44.20621 -67.56736 40082 ft 441 kts 231°
2026-04-21 00:14 -44.24531 -67.63323 40082 ft 441 kts 231°
2026-04-21 00:14 -44.28438 -67.69918 40081 ft 441 kts 231°
2026-04-21 00:15 -44.32337 -67.76517 40082 ft 441 kts 231°
2026-04-21 00:15 -44.36237 -67.83131 40084 ft 441 kts 231°
2026-04-21 00:16 -44.40134 -67.89757 40085 ft 441 kts 232°
2026-04-21 00:16 -44.44020 -67.96382 40085 ft 440 kts 232°
2026-04-21 00:17 -44.47883 -68.02977 40087 ft 441 kts 232°
2026-04-21 00:17 -44.51766 -68.09625 40081 ft 441 kts 232°
2026-04-21 00:18 -44.55645 -68.16281 40084 ft 441 kts 232°
2026-04-21 00:18 -44.59524 -68.22952 40087 ft 440 kts 232°
2026-04-21 00:19 -44.62744 -68.28501 40086 ft 440 kts 232°
2026-04-21 00:19 -44.66592 -68.35146 40086 ft 440 kts 233°
2026-04-21 00:20 -44.70451 -68.41828 40089 ft 440 kts 233°
2026-04-21 00:20 -44.74303 -68.48511 40090 ft 439 kts 233°
2026-04-21 00:21 -44.78153 -68.55209 40093 ft 439 kts 233°
2026-04-21 00:21 -44.80080 -68.58566 39889 ft 442 kts 233°
2026-04-21 00:21 -44.81997 -68.61909 39534 ft 433 kts 233°
2026-04-21 00:21 -44.83874 -68.65182 39174 ft 425 kts 233°
2026-04-21 00:22 -44.85692 -68.68359 38820 ft 419 kts 233°
2026-04-21 00:22 -44.87509 -68.71543 38407 ft 414 kts 233°
2026-04-21 00:22 -44.89303 -68.74688 37990 ft 409 kts 233°
2026-04-21 00:22 -44.91075 -68.77796 37577 ft 405 kts 233°
2026-04-21 00:23 -44.92834 -68.80884 37179 ft 401 kts 233°
2026-04-21 00:23 -44.94574 -68.83943 36795 ft 397 kts 233°
2026-04-21 00:23 -44.96296 -68.86975 36418 ft 394 kts 233°
2026-04-21 00:23 -44.98001 -68.89978 36049 ft 390 kts 233°
2026-04-21 00:24 -44.99696 -68.92968 35690 ft 387 kts 233°
2026-04-21 00:24 -45.01370 -68.95924 35352 ft 384 kts 233°
2026-04-21 00:24 -45.03033 -68.98863 35017 ft 381 kts 233°
2026-04-21 00:24 -45.04682 -69.01779 34680 ft 378 kts 233°
2026-04-21 00:25 -45.06297 -69.04641 34355 ft 376 kts 233°
2026-04-21 00:25 -45.07924 -69.07525 34027 ft 373 kts 233°
2026-04-21 00:25 -45.09540 -69.10392 33667 ft 371 kts 233°
2026-04-21 00:25 -45.11142 -69.13237 33306 ft 369 kts 233°
2026-04-21 00:26 -45.12735 -69.16070 32961 ft 367 kts 233°
2026-04-21 00:26 -45.14320 -69.18892 32604 ft 365 kts 233°
2026-04-21 00:26 -45.15896 -69.21701 32257 ft 363 kts 233°
2026-04-21 00:26 -45.17466 -69.24500 31925 ft 362 kts 233°
2026-04-21 00:27 -45.19031 -69.27293 31608 ft 361 kts 233°
2026-04-21 00:27 -45.20589 -69.30078 31296 ft 359 kts 233°
2026-04-21 00:27 -45.22140 -69.32853 30991 ft 359 kts 233°
2026-04-21 00:27 -45.23689 -69.35625 30690 ft 358 kts 233°
2026-04-21 00:28 -45.25231 -69.38389 30390 ft 357 kts 233°
2026-04-21 00:28 -45.26772 -69.41155 30086 ft 356 kts 233°
2026-04-21 00:28 -45.28307 -69.43910 29741 ft 356 kts 233°
2026-04-21 00:28 -45.29840 -69.46665 29409 ft 355 kts 233°
2026-04-21 00:29 -45.31369 -69.49416 29076 ft 354 kts 233°
2026-04-21 00:29 -45.32894 -69.52162 28750 ft 354 kts 233°
2026-04-21 00:29 -45.34416 -69.54908 28427 ft 353 kts 233°
2026-04-21 00:29 -45.35933 -69.57643 28130 ft 352 kts 233°
2026-04-21 00:30 -45.37429 -69.60346 27840 ft 351 kts 233°
2026-04-21 00:30 -45.38939 -69.63076 27546 ft 351 kts 233°
2026-04-21 00:30 -45.40446 -69.65803 27202 ft 351 kts 233°
2026-04-21 00:30 -45.41969 -69.68562 26591 ft 359 kts 233°
2026-04-21 00:31 -45.43520 -69.71376 26018 ft 364 kts 233°
2026-04-21 00:31 -45.45094 -69.74230 25469 ft 368 kts 233°
2026-04-21 00:31 -45.46692 -69.77129 24635 ft 377 kts 233°
2026-04-21 00:31 -45.48327 -69.80105 23804 ft 385 kts 233°
2026-04-21 00:32 -45.49986 -69.83124 23157 ft 384 kts 233°
2026-04-21 00:32 -45.51626 -69.86109 22580 ft 381 kts 233°
2026-04-21 00:32 -45.53257 -69.89085 22015 ft 379 kts 233°
2026-04-21 00:32 -45.54872 -69.92036 21477 ft 377 kts 233°
2026-04-21 00:33 -45.56481 -69.94979 20926 ft 375 kts 233°
2026-04-21 00:33 -45.58062 -69.97871 20420 ft 373 kts 233°
2026-04-21 00:33 -45.59655 -70.00793 19904 ft 371 kts 233°
2026-04-21 00:33 -45.61239 -70.03703 19409 ft 369 kts 233°
2026-04-21 00:34 -45.62816 -70.06597 18923 ft 368 kts 233°
2026-04-21 00:34 -45.64384 -70.09476 18449 ft 366 kts 233°
2026-04-21 00:34 -45.65924 -70.12309 17929 ft 364 kts 233°
2026-04-21 00:34 -45.67473 -70.15161 17398 ft 362 kts 233°
2026-04-21 00:35 -45.69016 -70.18006 16888 ft 360 kts 234°
2026-04-21 00:35 -45.70550 -70.20835 16377 ft 358 kts 234°
2026-04-21 00:35 -45.72072 -70.23646 15895 ft 355 kts 234°
2026-04-21 00:35 -45.73578 -70.26431 15419 ft 353 kts 234°
2026-04-21 00:36 -45.75076 -70.29205 14953 ft 351 kts 234°
2026-04-21 00:36 -45.76567 -70.31964 14498 ft 349 kts 234°
2026-04-21 00:36 -45.78046 -70.34708 14055 ft 347 kts 234°
2026-04-21 00:36 -45.79521 -70.37445 13582 ft 345 kts 234°
2026-04-21 00:37 -45.80985 -70.40166 13093 ft 344 kts 234°
2026-04-21 00:37 -45.82428 -70.42850 12620 ft 343 kts 234°
2026-04-21 00:37 -45.83881 -70.45556 12148 ft 342 kts 234°
2026-04-21 00:37 -45.85334 -70.48262 11687 ft 342 kts 234°
2026-04-21 00:38 -45.86785 -70.50968 11238 ft 342 kts 234°
2026-04-21 00:38 -45.88298 -70.53608 10793 ft 344 kts 227°
2026-04-21 00:38 -45.90188 -70.55741 10364 ft 348 kts 214°
2026-04-21 00:38 -45.92366 -70.57299 9939 ft 349 kts 207°
2026-04-21 00:39 -45.94577 -70.58732 9496 ft 349 kts 207°
2026-04-21 00:39 -45.96781 -70.60187 9048 ft 348 kts 207°
2026-04-21 00:39 -45.98968 -70.61632 8614 ft 341 kts 207°
2026-04-21 00:39 -46.01066 -70.63012 8186 ft 330 kts 207°
2026-04-21 00:40 -46.03135 -70.64374 7761 ft 322 kts 207°
2026-04-21 00:40 -46.05156 -70.65708 7338 ft 316 kts 208°
2026-04-21 00:40 -46.07142 -70.67020 6922 ft 311 kts 208°
2026-04-21 00:40 -46.09103 -70.68318 6509 ft 307 kts 208°
2026-04-21 00:41 -46.11018 -70.69584 6079 ft 304 kts 208°
2026-04-21 00:41 -46.12944 -70.70859 5638 ft 302 kts 208°
2026-04-21 00:41 -46.14855 -70.72124 5202 ft 300 kts 208°
2026-04-21 00:41 -46.16735 -70.73371 4779 ft 299 kts 208°
2026-04-21 00:42 -46.18636 -70.74631 4332 ft 298 kts 208°
2026-04-21 00:42 -46.20478 -70.75855 3904 ft 297 kts 208°
2026-04-21 00:42 -46.22364 -70.77107 3464 ft 297 kts 208°
2026-04-21 00:42 -46.24244 -70.78360 2988 ft 298 kts 207°
2026-04-21 00:43 -46.26134 -70.79621 3127 ft 323 kts 207°
2026-04-21 00:43 -46.28334 -70.81089 4249 ft 367 kts 207°
2026-04-21 00:43 -46.30751 -70.82682 5504 ft 393 kts 207°
2026-04-21 00:43 -46.33325 -70.84386 5968 ft 429 kts 207°
2026-04-21 00:44 -46.35930 -70.86118 5978 ft 387 kts 208°
2026-04-21 00:44 -46.38226 -70.87652 5968 ft 348 kts 208°
2026-04-21 00:44 -46.40316 -70.89063 5965 ft 307 kts 209°
2026-04-21 00:45 -46.43817 -70.91424 5942 ft 262 kts 210°
2026-04-21 00:45 -46.45418 -70.92501 5946 ft 247 kts 210°
2026-04-21 00:45 -46.46900 -70.93485 5836 ft 223 kts 211°
2026-04-21 00:45 -46.48371 -70.94129 5515 ft 222 kts 189°
2026-04-21 00:46 -46.49842 -70.93575 5158 ft 226 kts 156°
2026-04-21 00:46 -46.51190 -70.92439 4821 ft 216 kts 158°
2026-04-21 00:46 -46.52476 -70.91424 4407 ft 205 kts 159°
2026-04-21 00:46 -46.53699 -70.90761 3698 ft 178 kts 178°
2026-04-21 00:47 -46.54854 -70.90975 3029 ft 162 kts 214°
2026-04-21 00:47 -46.55508 -70.92132 2414 ft 146 kts 270°
2026-04-21 00:47 -46.55149 -70.93383 2099 ft 125 kts 304°
2026-04-21 00:47 -46.54716 -70.94483 1765 ft 131 kts 293°
2026-04-21 00:48 -46.54378 -70.95724 1618 ft 130 kts 292°
2026-04-21 00:48 -46.54033 -70.96936 1425 ft 127 kts 291°
2026-04-21 00:48 -46.53752 -70.97926 1416 ft 68 kts 293°
2026-04-21 00:48 -46.53651 -70.98284 1419 ft 35 kts 289°
2026-04-21 00:49 -46.53763 -70.98383 1415 ft 25 kts 206°
2026-04-21 00:49 -46.53793 -70.98428 1415 ft 0 kts 286°